Norfolk, NE

9:40 PM CST on December 08, 2019 (GMT -0600)
Stefan Memorial

Weather History for KOFK - October, 2019

Change the Weather History Date:

Monday, October 14, 2019

  Actual Average Record
Temperature  
Mean Temperature 50 °F 52 °F  
Max Temperature 73 °F 65 °F 90 °F (1908)
Min Temperature 26 °F 39 °F 22 °F (1969)
Degree Days  
Heating Degree Days 15 13  
Month to date heating degree days 219 156  
Since 1 July heating degree days 249 298  
Cooling Degree Days 0 0  
Month to date cooling degree days 0 8  
Year to date cooling degree days 949 914  
Moisture  
Dew Point 36 °F    
Average Humidity 64    
Maximum Humidity 92    
Minimum Humidity 35    
Precipitation  
Precipitation 0.00 in 0.07 in 2.34 in (2013)
Month to date precipitation 1.66 1.08  
Year to date precipitation 23.69 24.30  
Snow  
Snow 0.00 in 0.00 in - ()
Month to date snowfall T 0.1  
Since 1 July snowfall T 0.1  
Snow Depth 0.00 in    
Sea Level Pressure  
Sea Level Pressure 29.90 in    
Wind  
Wind Speed 7 mph (SSE)    
Max Wind Speed 18 mph    
Max Gust Speed 27 mph    
Visibility 10 miles    
Events      
T = Trace of Precipitation, MM = Missing Value Source: NWS Daily Summary

Daily Weather History Graph

Daily Weather History Graph

Search for Another Location

Airport or City:

Astronomy

Oct. 14, 2019 Rise Set
Actual Time 7:40 AM CDT 6:49 PM CDT
Civil Twilight 7:12 AM CDT 7:18 PM CDT
Nautical Twilight 6:40 AM CDT 7:50 PM CDT
Astronomical Twilight 6:08 AM CDT 8:22 PM CDT
Moon 7:40 PM CDT (10/14) 8:13 AM CDT (10/14)
Length of Visible Light 12h 05m
Length of Day
11h 09m
Full, 99% of the Moon is Illuminated
Oct 14
Full
Oct 21
Last Quarter
Oct 27
New
Nov 4
First Quarter
Nov 12
Full

Hourly Weather History & Observations

Time (CDT) Temp. Windchill Dew Point Humidity Pressure Visibility Wind Dir Wind Speed Gust Speed Precip Events Conditions
12:56 AM 30.0 °F - 25.0 °F 82% 30.03 in 10.0 mi Calm Calm - N/A   Clear
1:56 AM 28.0 °F - 25.0 °F 88% 30.04 in 10.0 mi Calm Calm - N/A   Clear
2:56 AM 30.0 °F - 24.1 °F 79% 30.04 in 10.0 mi Calm Calm - N/A   Clear
3:56 AM 28.0 °F - 24.1 °F 85% 30.03 in 10.0 mi Calm Calm - N/A   Clear
4:56 AM 27.0 °F 23.0 °F 23.0 °F 85% 30.01 in 10.0 mi ESE 3.5 mph - N/A   Clear
6:56 AM 30.0 °F 26.5 °F 27.0 °F 88% 30.03 in 10.0 mi East 3.5 mph - N/A   Clear
7:56 AM 28.0 °F 24.2 °F 26.1 °F 92% 30.01 in 10.0 mi ESE 3.5 mph - N/A   Clear
8:56 AM 35.1 °F 28.6 °F 32.0 °F 89% 30.00 in 10.0 mi ESE 8.1 mph - N/A   Clear
9:56 AM 43.0 °F 38.2 °F 36.0 °F 76% 30.00 in 10.0 mi SE 8.1 mph - N/A   Clear
10:56 AM 51.1 °F - 36.0 °F 56% 29.97 in 10.0 mi SE 10.4 mph - N/A   Clear
12:56 PM 63.0 °F - 37.0 °F 38% 29.90 in 10.0 mi South 17.3 mph - N/A   Clear
1:56 PM 66.9 °F - 39.9 °F 37% 29.85 in 10.0 mi SSE 15.0 mph - N/A   Clear
2:56 PM 71.1 °F - 43.0 °F 36% 29.81 in 10.0 mi South 15.0 mph - N/A   Clear
3:56 PM 73.0 °F - 44.1 °F 35% 29.78 in 10.0 mi South 15.0 mph 25.3 mph N/A   Clear
4:56 PM 73.0 °F - 45.0 °F 37% 29.75 in 10.0 mi South 15.0 mph 24.2 mph N/A   Clear
5:56 PM 71.1 °F - 46.0 °F 41% 29.73 in 10.0 mi SSE 11.5 mph - N/A   Clear
6:56 PM 64.9 °F - 46.0 °F 50% 29.76 in 10.0 mi South 9.2 mph - N/A   Clear
7:56 PM 64.0 °F - 46.0 °F 52% 29.77 in 10.0 mi South 10.4 mph - N/A   Clear
8:56 PM 60.1 °F - 46.0 °F 60% 29.76 in 10.0 mi SE 8.1 mph - N/A   Clear
9:56 PM 59.0 °F - 46.0 °F 62% 29.76 in 10.0 mi SSE 11.5 mph - N/A   Clear
10:56 PM 59.0 °F - 46.9 °F 64% 29.76 in 10.0 mi South 8.1 mph - N/A   Clear
11:56 PM 53.1 °F - 45.0 °F 74% 29.78 in 10.0 mi SE 6.9 mph - N/A   Clear